Find OneWeb SL0124

NORAD ID: 47276 Int'l Des: 2020-100 Owner: ONEWEB Country: UK Constellation: oneweb operational
LEOCIRCULARPOLARONEWEB_TYPE

Live Position

Loading 3D Globe...

About OneWeb SL0124

Description loading...

Upcoming Passes

Passes for default location (London). Set your location on the main map for personalized predictions.

Altitude History

Loading altitude history...

Two-Line Element Set

1 47276U 20100U 26126.10694515 .00000334 00000-0 89309-3 0 9999
2 47276 87.8981 359.0160 0001696 78.5000 281.6319 13.12443615259124
Epoch: May 6, 2026 • Age: 9 hours

Current Status

Altitude 1242.0 km
Velocity 7.23 km/s
Sub-Earth Point -73.86°S, 42.72°W
Launch Date Dec 18, 2020
Age 5.3 years
Type internet

Technical Details

Classification Payload
Mass 148.00 kg
Dry Mass 140.00 kg
Total Mass 148.00 kg
Length 1.30 m
Diameter 1.00 m
Span 5.00 m
Shape Trapezoid+2 pan
Manufacturer ONEWUS
Bus Type ARROW
Phase Status In Orbit
Owner/State ONEWEB/UK

Most Searched